Theta_e
355 358 359 358 359 358 359 359 359 360 363 359 361 360 359 360 358 358 355 356 354 354 352 353 350 352 349 350 350 350 353 353 352 352 351 355 357 360 361 360 359 358 358 359 359 359 359 358 357 357 357 357 357 357 357 357 357 357 356 356 355 355 354 354 354 354 354 355 355 355 353 354 353 353 353 353 352 352 351 351 352 352 352 353 352
355 359 359 359 360 363 362 361 362 360 356 356 360 358 357 356 358 356 354 354 353 352 352 351 349 351 348 347 348 348 351 351 350 348 350 354 358 361 362 360 359 359 359 358 359 359 359 357 357 357 357 357 357 357 357 357 356 357 357 356 356 355 354 354 354 354 354 354 355 355 354 354 353 353 353 353 352 353 353 351 350 350 352 353 353
357 361 357 359 360 362 360 362 359 361 359 360 362 362 357 357 356 352 352 352 352 354 353 350 351 351 350 347 346 348 350 350 347 348 351 350 358 359 359 360 360 359 359 359 359 359 359 358 357 357 357 357 357 357 357 357 356 356 356 356 356 356 355 355 354 354 354 354 354 354 354 354 354 353 353 353 353 353 353 354 352 353 353 353 353
363 361 360 361 361 361 362 359 358 361 360 356 361 364 362 364 364 361 358 356 356 354 352 349 348 350 351 347 347 348 349 349 347 349 351 353 358 358 356 357 360 360 360 359 359 359 358 358 358 358 357 357 356 356 356 356 356 356 356 356 356 356 355 355 355 355 355 354 354 354 354 354 355 354 354 355 354 354 354 353 352 353 353 353 353
365 362 366 362 361 362 361 364 366 362 363 365 360 357 359 360 358 362 359 356 354 353 351 347 346 348 349 350 347 347 350 351 351 351 353 356 358 358 356 358 357 360 360 360 360 360 359 358 358 358 358 357 357 357 356 356 356 356 355 357 356 356 357 356 356 355 356 355 355 354 355 354 354 354 354 354 354 354 354 354 354 353 354 353 353
364 366 360 361 361 360 361 358 362 367 366 365 359 361 361 357 356 356 362 359 349 337 340 338 341 341 342 346 347 349 352 352 352 353 355 356 356 357 357 357 357 357 358 360 359 360 359 359 359 359 358 358 358 357 357 357 357 356 356 356 356 356 356 356 355 355 356 356 355 355 355 355 355 355 355 354 354 354 354 354 354 355 354 354 354
364 362 363 363 363 363 363 358 361 364 359 364 360 358 358 357 359 355 352 350 335 348 336 336 335 337 336 341 345 350 352 351 352 355 356 356 355 356 356 357 357 357 358 356 359 360 359 359 359 359 359 358 358 358 357 357 357 356 356 355 356 355 355 356 355 355 355 355 355 355 355 355 356 356 355 356 355 355 355 355 354 354 354 354 354
364 365 363 364 361 359 363 363 362 368 364 364 363 361 362 359 360 355 346 340 344 335 341 343 340 339 337 336 344 351 350 351 353 354 355 355 354 354 356 357 357 356 360 356 356 358 359 359 359 359 358 359 359 359 358 358 358 357 357 356 355 356 355 354 354 355 354 354 354 354 355 355 355 355 355 355 355 354 355 355 355 354 354 354 354
363 364 362 363 360 360 363 364 367 365 363 364 362 363 360 361 358 361 345 344 334 329 333 335 338 337 335 339 343 348 349 351 352 352 354 353 353 354 356 356 358 360 357 356 356 357 358 359 360 359 359 358 358 358 358 357 357 356 356 356 356 356 355 355 355 355 354 355 355 354 354 354 354 354 354 353 353 353 354 354 354 354 353 353 353
362 363 361 365 360 358 358 361 366 363 363 365 360 356 358 359 356 354 353 341 333 331 331 335 339 341 341 342 342 344 347 349 352 360 352 352 353 354 354 355 358 356 357 357 357 356 356 358 360 359 359 359 358 358 357 358 357 357 357 356 356 356 356 355 355 355 355 355 354 354 354 354 354 354 353 353 353 353 353 352 352 351 352 352 352
362 364 360 363 359 356 355 361 365 365 365 361 359 359 357 355 354 346 351 342 330 331 333 340 341 341 341 341 342 343 345 350 355 351 352 353 354 356 355 354 355 355 356 357 357 356 355 356 355 356 357 359 358 358 358 358 357 357 356 356 356 356 356 356 356 355 355 354 354 354 354 353 353 354 354 353 353 353 352 351 351 352 352 352 352
362 363 361 362 361 359 357 364 362 361 361 354 354 356 359 356 352 346 349 349 344 341 332 338 342 343 344 339 341 342 340 350 348 349 352 353 355 355 354 354 353 353 355 357 357 356 356 355 358 355 356 358 358 358 358 357 357 356 356 357 355 355 356 356 355 355 354 354 354 354 353 353 353 353 353 353 353 352 352 352 352 352 352 351 351
363 362 362 365 362 362 361 359 362 361 360 356 355 356 357 359 358 355 347 345 341 342 337 344 335 336 340 341 341 344 352 348 343 348 350 352 353 352 354 353 352 353 354 355 356 356 356 356 356 355 355 354 356 358 358 357 357 356 356 356 356 355 356 355 355 354 354 353 353 353 352 352 351 351 351 352 352 352 352 352 352 352 352 352 351
364 362 362 361 359 360 362 358 362 360 363 360 356 362 360 359 351 349 354 341 337 335 341 338 334 332 327 335 339 337 346 342 340 345 348 350 352 351 352 351 352 352 352 354 354 356 356 355 353 354 354 354 354 353 353 355 356 357 357 356 357 356 355 355 355 354 354 353 353 354 353 352 351 352 352 351 351 351 351 351 350 351 351 351 351
363 364 362 362 360 358 359 359 363 366 361 359 359 355 358 355 350 347 342 341 346 343 340 339 335 339 340 335 329 325 334 344 344 343 346 348 349 349 350 350 351 349 351 351 352 353 354 353 352 353 354 353 353 354 353 358 354 356 356 357 356 355 355 355 355 353 353 353 353 353 352 352 352 351 351 351 351 351 351 351 351 351 351 351 351
364 363 363 362 361 360 361 360 361 364 360 360 359 356 354 353 351 352 344 335 335 333 345 340 341 340 329 331 330 328 325 328 336 342 344 345 346 346 346 347 348 348 351 350 349 350 352 353 353 353 353 352 352 352 353 350 357 357 358 356 356 357 354 354 354 351 350 353 352 351 351 351 351 351 350 350 350 351 350 351 351 350 351 350 349
363 363 362 361 362 361 361 362 362 363 363 359 359 356 356 354 353 352 341 342 343 331 336 344 346 346 344 335 331 327 327 329 333 333 341 339 341 343 348 339 341 347 349 348 347 350 351 352 353 353 353 351 351 351 349 351 349 356 355 356 355 355 353 350 347 346 348 348 348 347 347 346 346 346 346 348 348 348 348 349 349 348 347 347 347
362 362 362 363 362 362 362 364 363 363 363 361 359 357 354 353 351 351 344 344 344 331 332 351 349 351 345 342 339 328 331 332 328 325 341 345 338 340 339 336 336 340 342 342 344 348 352 351 352 352 351 351 349 348 347 346 353 348 347 351 353 352 349 348 347 346 347 348 347 346 346 345 346 347 347 344 345 344 345 344 344 344 345 344 343
362 362 361 362 363 363 363 363 364 363 365 362 358 357 356 353 352 346 344 352 346 334 333 337 341 344 348 347 349 348 343 337 328 330 326 333 340 335 336 338 337 338 340 341 343 344 347 350 351 351 350 349 345 347 348 350 355 353 356 354 352 350 348 347 343 343 343 346 346 345 345 346 346 346 344 345 344 345 344 344 344 344 343 342 340
361 361 360 362 363 363 363 363 363 364 364 362 358 358 356 356 352 352 348 346 342 341 337 337 334 336 344 344 349 348 342 344 341 331 329 326 329 337 335 336 336 337 338 338 339 341 341 345 346 347 347 346 344 346 347 348 348 350 353 355 350 349 347 345 344 343 343 343 344 345 345 344 343 343 344 344 343 344 343 343 342 341 341 340 340
360 361 360 362 365 363 364 363 362 363 365 363 362 360 358 353 350 349 347 347 342 343 340 342 337 337 336 337 343 340 338 343 346 344 335 327 328 328 329 336 336 335 334 337 336 339 340 339 341 343 344 342 343 344 344 344 344 345 353 354 350 349 349 349 347 346 345 344 343 342 343 344 344 343 343 343 343 341 342 341 340 340 340 341 340
359 360 360 362 364 364 364 363 363 364 364 363 361 360 358 354 350 350 350 347 347 342 339 342 344 343 338 337 338 339 337 333 335 336 336 336 329 327 327 330 327 335 334 334 335 338 340 338 340 338 338 338 341 341 341 340 339 340 346 350 347 348 349 349 348 347 346 345 344 344 342 343 341 342 341 339 343 341 340 339 340 340 339 339 339
358 359 360 361 363 364 364 364 364 364 364 361 360 359 359 355 354 352 350 347 347 342 346 346 349 349 341 336 337 336 335 331 330 334 335 332 331 332 332 331 326 329 332 335 337 336 337 338 337 336 336 337 339 338 337 336 342 340 346 348 348 348 349 349 348 348 348 347 345 344 344 342 341 341 341 340 340 340 342 342 343 344 344 344 344
357 358 360 360 363 363 364 364 364 363 363 361 360 360 359 356 354 351 350 349 348 345 340 341 345 345 341 341 339 342 341 338 336 337 336 334 333 330 332 338 331 332 338 337 337 333 334 336 336 335 336 337 339 337 337 337 339 344 346 350 348 347 349 348 347 348 349 349 348 347 347 345 343 341 340 340 341 342 342 342 342 343 343 343 343
356 356 359 359 362 361 361 362 362 363 363 362 363 359 358 357 355 352 350 351 348 346 341 341 342 345 344 341 341 340 340 339 341 339 340 342 336 334 336 334 332 331 334 335 333 335 334 334 334 336 337 338 341 339 337 337 336 346 347 351 348 347 347 347 347 347 348 348 349 349 347 347 347 347 344 343 343 343 343 343 344 344 344 344 344
356 356 359 360 361 362 362 362 363 364 363 362 363 360 358 357 357 354 349 351 350 348 343 344 341 345 346 344 340 338 339 344 338 340 339 336 334 332 332 336 333 329 334 332 335 331 333 336 337 337 337 337 340 340 340 338 337 350 349 339 343 345 346 346 346 345 345 347 347 349 349 347 347 347 347 347 346 345 345 345 345 344 345 345 345
357 358 360 359 360 362 362 362 363 364 364 363 363 362 361 358 357 356 352 351 351 350 346 343 344 342 345 344 345 338 337 341 340 338 338 337 334 335 332 328 328 332 331 334 333 330 332 336 337 336 338 339 339 342 341 340 343 351 352 337 336 345 345 345 345 345 344 344 346 347 348 347 347 347 348 347 347 346 347 347 347 347 347 347 348
359 360 360 359 359 361 363 361 363 364 363 363 363 362 361 358 357 355 353 356 350 351 348 344 342 342 342 344 346 346 344 341 341 336 335 338 337 337 334 331 327 324 328 327 330 330 335 332 336 338 339 339 341 342 345 346 342 351 353 335 333 340 344 344 343 343 343 343 344 346 347 347 346 346 347 347 348 348 349 349 349 349 349 348 348
360 361 360 359 359 361 362 362 362 364 363 363 363 362 361 359 356 355 354 355 351 349 350 347 344 343 341 342 343 344 345 348 346 343 336 335 341 337 337 334 333 328 324 325 326 328 333 333 330 334 339 340 342 342 344 341 344 349 344 337 334 333 339 341 342 340 341 342 342 343 345 346 344 344 346 347 348 349 349 349 349 349 349 348 348
360 362 361 359 359 364 361 361 362 363 363 363 363 362 362 360 357 356 356 354 352 350 351 349 346 345 344 342 343 345 347 346 346 345 345 335 337 344 342 338 334 330 329 324 324 330 331 335 331 333 337 341 343 343 344 340 350 349 343 339 340 337 336 338 340 340 340 340 340 340 342 343 344 343 343 343 344 345 347 348 349 348 348 348 347
359 359 360 359 360 360 361 361 361 362 362 362 363 362 362 360 359 357 356 355 353 350 350 350 349 346 344 342 342 343 346 345 345 345 345 345 337 342 340 341 339 334 333 329 325 330 334 333 332 337 339 341 344 344 345 344 349 350 343 340 339 344 343 339 339 339 338 337 337 337 337 338 338 340 340 340 341 342 344 345 346 346 346 346 346
360 360 360 360 359 360 361 361 361 362 362 362 363 362 363 361 359 358 357 355 354 351 350 350 351 348 346 343 343 343 344 344 344 344 343 345 343 339 341 339 339 338 336 332 328 328 337 335 340 339 342 341 342 341 340 344 351 352 342 341 341 346 347 343 343 339 337 336 336 336 335 334 335 337 338 339 340 342 344 343 342 342 342 342 343
359 360 359 360 359 360 361 361 361 361 362 362 363 362 362 361 360 359 358 356 354 355 351 349 349 349 347 345 344 344 345 343 342 343 344 343 343 340 340 340 338 339 336 334 331 332 336 340 342 338 342 340 340 340 339 339 345 346 345 342 345 344 343 343 342 342 338 336 335 335 335 335 335 336 337 339 340 342 343 343 342 339 339 339 339
358 357 359 360 360 359 359 361 361 362 362 362 363 362 361 361 361 361 359 357 355 355 352 349 348 349 348 346 345 345 346 345 343 342 343 343 343 340 338 340 337 339 339 335 332 332 332 335 337 339 340 341 337 341 340 338 341 343 341 341 346 342 343 343 341 342 341 338 335 334 335 334 334 335 335 337 338 339 339 340 339 336 336 336 334
359 357 356 359 360 359 358 359 360 361 362 362 363 363 362 361 360 360 360 358 356 355 354 351 349 348 348 347 346 345 347 346 344 343 343 342 342 340 339 339 338 338 339 337 334 332 332 333 337 336 336 340 337 338 339 341 342 342 340 340 342 346 345 343 343 344 342 338 336 334 334 334 334 334 334 336 336 335 335 334 333 333 332 331 330
358 358 356 355 359 360 358 357 357 358 361 362 362 362 362 361 361 360 359 358 358 357 356 354 351 348 348 348 347 345 345 345 345 344 343 342 341 340 339 339 338 338 339 339 337 334 333 332 335 338 336 335 337 341 340 342 342 341 340 340 342 342 343 344 342 341 341 339 337 335 334 333 332 332 331 331 331 330 329 329 329 329 329 328 327
357 357 357 355 354 358 359 358 357 357 358 361 361 361 362 362 361 361 360 358 357 358 357 356 357 351 349 348 349 347 344 343 344 344 343 341 342 341 339 339 338 338 340 340 338 337 335 333 333 337 340 337 336 338 339 336 339 341 341 340 341 341 341 342 343 343 341 338 337 335 333 332 332 331 330 330 330 329 328 328 327 327 327 326 325
356 357 357 356 354 354 358 360 359 358 358 359 360 360 361 361 361 361 361 359 358 357 358 357 357 354 351 349 350 349 345 343 343 344 344 342 342 341 341 339 339 339 338 340 339 338 336 335 334 334 337 339 336 336 338 338 337 336 337 339 340 342 341 340 340 342 344 344 340 337 333 332 332 330 330 330 330 329 328 327 327 326 325 323 320
355 356 356 357 357 354 354 358 360 360 359 359 359 360 360 360 361 360 360 360 359 358 358 358 358 357 354 352 351 350 348 345 343 343 344 343 343 341 342 341 340 339 338 338 340 338 337 335 336 337 336 339 338 335 337 338 338 337 334 334 335 339 340 339 339 341 341 344 339 338 337 335 333 332 326 326 328 329 329 328 327 325 324 321 318
354 355 356 356 357 357 355 355 358 361 360 359 359 359 359 359 360 360 360 360 359 358 357 358 358 358 356 355 353 352 351 348 346 344 345 344 344 342 342 342 341 339 338 338 339 339 336 335 334 335 336 336 336 337 340 337 333 333 337 335 332 334 337 338 338 339 342 342 339 339 338 335 333 332 327 327 329 329 329 329 330 329 326 323 321
355 354 355 357 356 356 358 357 356 358 360 360 359 359 358 358 358 359 359 359 359 358 357 357 358 358 358 356 355 354 354 349 341 341 341 341 345 342 342 342 342 340 339 338 337 339 338 336 334 335 334 334 336 336 335 336 333 332 334 337 335 335 337 337 339 341 342 341 341 339 338 338 336 336 336 334 334 333 331 331 332 334 329 323 322
354 354 353 355 357 356 356 358 358 358 359 361 354 342 345 358 358 359 359 359 359 358 357 356 356 358 358 357 357 347 341 340 338 335 334 334 335 342 343 341 341 341 339 338 337 337 338 337 336 335 333 333 334 335 335 337 338 336 335 336 334 335 336 337 338 341 344 343 341 339 339 341 338 336 337 336 337 341 334 333 332 333 332 327 325
355 355 354 352 354 357 356 357 358 359 359 359 342 335 336 340 354 358 358 358 359 358 358 356 355 356 357 357 357 352 343 339 342 334 333 331 332 333 335 336 337 342 340 338 337 337 336 337 338 337 336 335 335 335 336 337 337 337 336 336 335 334 334 333 332 335 348 344 340 338 337 341 339 336 337 338 338 341 339 336 334 333 330 328 326
356 357 356 354 353 356 358 357 357 359 360 347 335 333 334 333 339 358 358 358 359 359 359 358 357 356 356 357 357 357 355 352 351 346 336 332 330 330 331 332 332 333 336 340 339 338 337 336 336 337 337 336 336 337 336 336 337 338 337 337 336 334 333 333 332 332 337 346 340 337 337 338 340 336 334 337 338 338 339 335 333 332 330 328 327
355 357 357 357 355 355 358 357 357 358 359 344 334 331 331 331 331 343 358 358 357 358 359 358 358 357 356 356 357 358 358 345 348 351 348 343 330 328 329 330 331 330 331 333 336 341 341 338 337 336 337 338 336 337 338 337 338 336 337 336 337 336 336 334 334 334 338 346 340 336 335 336 340 337 334 336 337 337 338 333 332 332 330 329 327
353 355 357 357 357 355 355 357 358 358 359 345 331 329 328 328 330 335 356 357 357 357 358 359 358 357 357 356 355 356 357 356 352 352 352 349 346 340 336 338 340 338 329 329 330 332 338 341 339 337 339 340 338 338 341 340 337 336 336 336 337 337 337 336 338 337 340 345 339 335 331 332 337 336 334 335 337 337 337 332 328 329 329 327 326
352 353 355 357 358 358 356 355 358 359 360 340 329 327 326 325 327 329 354 357 357 356 356 357 358 358 357 357 355 355 355 356 355 351 352 351 349 346 342 340 341 342 341 339 338 339 340 342 342 341 340 341 341 340 340 341 340 339 339 339 339 339 340 338 336 339 341 343 339 336 330 331 336 334 333 332 333 333 333 330 327 327 327 324 325
354 354 354 355 357 358 358 356 355 357 361 336 328 326 325 324 325 340 351 355 355 355 355 355 356 358 358 357 355 354 354 354 346 332 339 352 351 348 345 343 342 343 343 337 335 336 341 343 343 343 343 343 337 342 342 342 341 340 342 342 341 340 338 336 335 338 338 342 341 336 332 331 335 334 331 332 332 330 332 331 326 325 324 324 325
353 353 353 354 355 357 358 358 356 354 356 341 326 323 323 323 325 345 350 353 355 355 355 356 357 357 358 358 356 355 354 354 342 330 329 333 351 349 347 345 344 343 343 345 333 328 329 330 330 332 333 332 330 329 328 332 341 339 341 338 337 339 336 333 333 334 335 339 341 339 334 330 332 332 330 330 330 329 330 327 327 325 323 321 321
351 353 354 355 355 356 356 358 358 357 356 342 322 322 321 320 329 348 351 353 354 355 356 357 357 357 358 350 358 357 355 354 336 327 326 331 348 350 349 347 345 343 344 346 346 341 327 326 327 329 330 330 331 330 329 329 330 335 341 336 338 339 336 335 332 333 334 336 339 342 333 332 333 331 329 328 329 327 326 326 329 325 323 317 317
353 353 354 354 355 356 356 357 352 356 358 349 320 318 319 318 328 349 353 353 353 354 355 356 357 357 357 355 347 347 352 349 333 327 324 328 346 350 350 348 346 345 345 346 345 345 343 338 337 336 337 335 338 339 339 329 332 340 342 341 340 339 336 335 334 333 330 332 337 342 334 332 331 331 329 324 322 324 326 327 329 324 323 323 321
Wind_Speed
5 5 5 5 5 5 4 5 5 4 4 4 4 4 3 2 3 4 4 4 4 4 6 6 6 6 6 6 4 4 3 4 3 4 2 2 4 7 11 10 10 10 10 10 10 10 10 10 10 10 9 9 9 9 8 8 8 8 7 8 7 6 6 5 5 4 4 4 4 4 3 4 3 3 3 2 2 1 1 5 5 3 3 4 3
6 5 6 5 5 4 4 3 5 3 3 4 4 4 4 2 3 3 4 4 4 4 4 6 7 6 6 6 5 5 5 5 4 4 3 1 4 5 11 10 10 10 10 9 10 10 10 9 10 10 10 10 9 8 8 8 8 7 7 7 7 6 6 6 5 4 4 4 5 4 3 3 4 3 3 2 1 3 0 4 3 5 4 3 4
6 5 5 5 4 4 3 2 2 6 3 3 1 4 4 4 4 5 5 5 5 6 6 6 6 8 6 6 6 5 5 4 5 6 7 5 4 4 6 11 11 10 10 10 9 10 10 10 10 10 10 9 9 9 9 9 8 8 8 7 7 6 5 5 5 5 5 5 5 5 5 5 4 3 3 3 2 3 5 5 3 3 3 2 3
5 5 5 4 4 4 4 3 2 4 5 6 5 4 3 4 5 5 5 5 5 5 6 6 7 7 8 8 6 6 6 5 5 4 4 4 5 4 5 6 11 11 11 10 10 10 10 10 10 10 9 9 9 9 9 9 9 8 8 8 8 7 6 5 5 5 4 5 6 5 5 6 6 5 5 5 4 4 4 4 3 3 3 4 3
4 5 4 4 4 4 4 2 3 3 4 6 4 3 1 0 2 3 3 2 1 2 6 7 7 6 8 9 7 6 7 6 5 4 4 4 5 5 5 5 5 11 12 11 11 11 10 10 10 10 9 9 8 9 9 9 8 8 8 8 8 8 7 6 6 5 5 4 4 5 5 5 5 5 5 5 5 4 4 4 4 3 3 3 3
3 3 3 4 3 3 3 5 3 2 2 3 4 2 1 1 2 2 4 4 4 1 7 6 6 5 7 9 8 7 7 6 6 5 5 5 5 5 5 5 5 4 5 11 11 11 11 10 10 10 10 9 9 9 9 8 8 8 8 7 7 7 7 6 6 6 5 5 5 5 4 5 5 5 5 5 5 5 4 5 5 4 4 4 4
3 4 3 4 4 3 4 3 2 0 3 2 3 2 2 2 2 1 2 2 2 0 2 3 3 6 7 10 8 7 6 5 5 5 5 5 5 5 5 5 4 4 4 3 8 10 10 11 11 10 10 10 10 9 9 9 8 8 8 7 7 7 6 6 6 6 6 6 6 6 6 5 5 6 6 5 4 4 4 5 5 5 4 4 4
3 3 3 3 4 4 5 4 3 2 3 3 3 2 1 2 1 0 1 3 3 0 1 2 2 2 4 8 10 9 6 5 6 6 5 5 6 5 5 5 5 5 5 4 4 6 11 10 10 10 10 10 10 10 9 9 9 9 8 8 8 6 6 7 7 7 7 7 6 7 6 6 6 6 6 6 5 5 5 5 5 5 6 5 5
4 4 3 2 4 4 1 2 3 4 3 3 3 2 0 1 2 1 2 3 4 1 3 6 4 6 4 7 8 10 8 7 6 5 6 5 5 6 6 5 6 8 5 5 4 4 8 11 10 10 10 10 9 9 9 9 9 9 9 9 9 8 8 7 7 7 7 7 7 7 7 7 6 6 6 7 6 6 5 5 6 6 6 6 6
4 4 3 3 5 4 4 2 3 4 3 4 4 2 0 0 1 2 3 3 2 3 4 6 4 6 4 6 7 7 8 7 6 6 6 6 6 6 6 6 6 6 5 5 5 4 3 7 10 9 9 9 9 9 9 8 8 7 8 8 8 7 7 7 7 6 6 6 6 6 6 6 5 5 5 5 5 6 6 6 6 6 6 7 6
4 4 4 3 4 3 4 3 3 4 4 4 3 2 1 2 0 1 3 2 4 2 3 5 6 4 5 5 6 5 6 7 7 7 6 7 7 7 6 5 5 6 6 6 5 5 4 3 3 3 4 9 8 9 8 7 6 7 7 7 7 7 7 6 6 6 6 5 5 5 4 3 2 3 3 4 4 3 4 4 4 6 5 4 5
5 4 5 3 4 4 3 5 4 4 5 4 3 3 3 2 3 1 1 1 1 0 4 5 4 4 4 3 3 4 5 9 7 7 6 6 6 6 7 6 6 6 6 6 6 6 5 4 3 3 2 6 10 8 8 8 7 7 7 7 7 7 6 7 6 6 5 4 4 2 1 2 2 2 3 2 3 2 2 2 2 4 3 3 3
5 5 5 4 3 4 5 5 5 5 5 4 4 4 2 1 3 2 2 1 1 0 2 5 5 3 2 2 2 2 1 3 9 8 8 6 5 6 6 6 6 6 6 5 6 6 5 5 5 4 4 3 4 8 9 8 7 6 7 7 7 7 7 5 4 4 4 3 4 3 3 2 3 2 2 2 2 1 1 2 2 2 2 1 2
6 5 5 4 3 2 2 4 5 5 5 5 3 2 3 2 2 1 1 3 1 1 2 3 3 3 4 1 2 2 1 0 4 8 7 6 6 6 6 7 7 6 4 5 6 6 6 5 5 5 5 4 3 3 3 5 5 7 7 7 6 7 6 6 5 6 5 5 5 5 4 3 3 2 1 0 1 1 1 1 1 1 1 2 3
6 6 6 4 4 3 3 4 5 5 5 4 4 4 4 4 4 3 1 1 1 1 4 4 1 1 2 4 1 1 2 2 1 6 7 7 6 7 7 7 7 5 5 5 5 5 5 5 5 5 5 5 4 3 3 4 4 7 7 5 7 6 7 6 6 5 5 4 4 4 4 3 3 2 3 3 2 2 2 1 2 2 2 3 4
7 6 4 5 5 5 4 4 4 5 6 5 5 5 4 4 4 3 3 0 0 0 2 3 2 4 1 1 3 4 1 2 0 4 9 8 9 7 7 7 6 6 5 6 6 5 5 6 6 5 5 5 4 4 4 3 6 8 8 6 5 6 7 6 7 6 5 5 5 4 4 4 4 4 4 3 3 4 3 4 4 3 4 3 3
7 6 6 6 5 5 4 4 5 5 5 5 5 6 5 4 5 4 4 2 0 1 0 2 4 2 4 2 2 1 2 3 1 1 0 5 7 9 5 5 7 8 7 6 5 6 6 6 6 5 5 5 5 4 3 4 2 3 5 7 6 5 7 7 6 6 6 6 6 5 5 4 3 3 3 3 4 3 3 4 4 4 3 3 4
7 7 7 5 6 6 5 4 5 5 6 5 5 4 5 4 4 5 5 3 3 3 2 1 4 2 2 2 2 2 3 1 3 1 3 1 6 7 7 7 7 9 7 6 7 6 5 6 5 5 6 6 4 5 4 3 3 2 3 3 8 6 6 6 6 6 6 6 6 6 6 5 5 4 4 4 4 4 4 3 3 3 3 3 3
8 8 7 6 6 6 5 5 5 5 4 5 5 5 5 5 4 4 5 4 4 3 4 3 2 1 1 2 2 1 3 3 1 2 3 1 2 2 5 6 7 7 7 8 8 7 6 6 7 6 5 5 5 5 5 5 5 6 6 6 7 6 6 6 5 5 5 6 5 5 6 6 5 5 5 4 5 5 5 5 4 3 3 3 3
8 8 8 7 7 7 6 5 5 6 5 5 6 5 5 4 4 3 6 5 6 6 3 3 5 3 1 1 2 1 4 4 3 3 4 3 1 1 1 5 6 6 8 8 8 8 8 7 6 6 6 6 6 6 6 5 5 5 5 7 7 7 6 5 5 4 3 3 4 4 4 5 5 5 4 4 4 5 4 4 4 3 3 3 3
8 8 8 7 7 7 6 5 5 6 5 5 5 5 5 4 4 5 5 5 5 5 4 2 3 4 3 1 2 2 3 3 2 3 2 2 2 2 2 1 1 4 6 6 6 7 7 7 6 7 7 6 6 6 6 6 6 6 6 10 9 8 7 5 5 5 4 3 4 4 4 4 4 5 4 5 4 4 4 3 4 3 2 2 1
8 8 9 8 8 8 7 7 6 6 6 6 5 5 4 4 6 6 5 5 3 5 6 4 3 3 4 5 3 2 3 2 1 2 2 2 2 1 3 4 5 4 5 6 6 7 7 6 7 8 8 7 7 7 6 6 6 6 7 13 11 10 9 8 7 7 6 5 5 5 4 5 4 4 4 5 4 4 3 3 3 2 2 2 2
8 7 9 8 8 8 8 7 6 5 6 6 6 6 5 5 6 5 6 6 4 4 4 4 2 2 4 6 6 5 5 3 4 2 2 1 0 3 2 3 6 4 7 6 7 7 7 7 7 7 7 6 7 7 7 7 7 7 12 13 12 11 11 11 10 9 7 7 7 6 5 5 5 5 5 5 5 4 4 4 4 4 4 4 4
9 8 8 9 8 8 8 7 7 6 7 6 6 6 6 6 6 6 6 5 4 4 4 4 2 3 4 5 5 4 4 4 5 5 5 3 4 3 3 1 0 2 3 4 5 6 6 8 7 8 7 6 7 8 7 7 7 13 10 13 13 13 13 12 12 11 9 8 8 7 7 6 7 7 7 7 6 6 6 6 5 5 6 5 5
9 9 8 10 8 8 8 8 7 7 6 6 6 7 6 6 6 6 6 6 6 5 5 4 5 3 5 4 5 4 4 4 4 4 4 5 5 2 2 0 2 1 3 6 3 3 6 7 7 7 7 6 7 7 7 7 7 11 12 10 15 14 13 13 12 12 11 11 10 10 9 8 7 7 7 8 8 7 8 7 7 7 7 7 7
10 10 10 10 9 9 9 8 8 7 7 7 6 6 7 7 7 7 7 6 6 6 5 4 4 4 4 5 4 5 5 4 5 4 4 3 3 4 1 2 0 3 0 3 3 5 3 4 6 7 8 7 7 7 7 7 7 13 15 9 13 15 14 13 14 13 13 12 12 11 11 10 11 10 10 10 10 10 9 9 9 9 9 9 8
11 10 9 9 9 8 9 9 8 8 7 7 7 6 6 7 7 7 7 6 6 6 5 5 5 4 4 4 5 5 6 5 5 6 5 5 5 5 4 1 2 1 1 1 0 4 4 2 6 6 9 8 7 7 8 8 9 14 15 10 8 14 14 15 14 14 14 14 13 13 13 12 12 13 13 12 11 11 11 10 10 10 10 10 9
9 9 10 10 9 9 9 9 8 8 8 8 7 7 6 7 7 7 7 5 7 6 6 6 6 5 5 4 4 5 5 5 5 6 5 5 5 3 5 4 4 2 0 2 2 4 2 2 1 5 7 8 7 7 8 10 9 15 14 7 7 9 14 15 15 14 14 14 14 13 13 13 13 13 13 13 12 11 10 10 9 9 9 10 10
8 9 9 9 9 9 10 10 9 8 8 8 8 7 6 7 8 8 8 7 7 7 6 7 6 6 5 5 5 5 5 3 3 4 5 4 5 6 6 7 6 4 3 4 4 4 4 3 3 3 8 7 8 6 8 7 9 10 7 8 8 7 12 16 15 14 14 14 13 14 14 14 14 14 13 13 12 11 11 10 10 9 9 8 9
8 8 9 10 9 10 10 10 10 9 9 8 8 8 8 7 8 8 8 7 8 6 6 7 7 6 5 6 5 5 5 4 5 3 4 5 5 6 6 6 6 7 5 5 5 4 4 3 4 4 4 7 6 6 6 7 9 11 8 8 8 8 13 16 16 16 15 14 14 14 14 14 14 14 14 13 13 12 11 11 10 9 9 9 10
8 8 8 9 9 9 9 10 10 10 9 9 9 8 8 7 7 8 7 7 8 8 7 7 7 7 6 7 6 6 5 5 4 4 3 3 5 4 6 6 5 6 6 4 2 4 4 5 5 3 6 5 6 6 5 6 7 10 8 8 8 11 14 12 16 17 16 15 14 14 14 15 14 14 14 13 13 12 11 10 10 9 9 10 10
9 10 9 10 10 10 10 10 11 10 10 10 10 9 8 8 8 8 8 8 8 9 8 8 7 8 8 7 7 7 6 5 5 5 4 4 4 5 4 5 5 5 6 5 6 7 3 3 4 4 7 8 7 7 6 5 7 12 7 7 9 11 7 6 13 15 15 15 15 15 15 15 15 15 14 14 12 11 9 10 10 10 10 10 9
9 11 11 11 11 11 11 11 11 11 10 10 10 9 9 9 9 9 8 10 10 8 8 9 8 8 9 8 7 6 6 6 6 6 4 4 4 5 4 5 5 4 6 5 6 6 5 1 2 3 5 7 5 7 7 6 5 7 7 7 6 6 6 5 5 11 14 14 15 15 15 15 14 14 14 13 12 10 10 10 11 10 10 9 9
11 11 12 11 11 12 11 11 12 11 11 11 11 10 10 10 10 8 9 10 10 9 8 9 10 8 8 9 9 7 6 8 7 7 6 5 5 5 5 6 6 6 5 6 6 6 8 3 2 1 4 5 7 6 8 8 6 6 7 6 6 6 6 5 5 5 13 14 15 15 15 15 14 14 14 13 13 12 11 11 11 10 9 9 8
11 11 11 11 12 12 12 11 11 11 12 11 11 10 11 11 12 10 10 10 11 11 10 10 10 9 8 9 10 8 6 7 7 8 7 6 5 6 7 6 6 6 6 6 6 7 7 7 4 4 6 6 8 7 6 6 8 8 8 7 7 6 5 6 6 5 11 15 16 15 16 15 14 14 13 13 12 12 12 11 10 9 9 8 8
12 11 12 11 10 12 12 12 11 11 12 12 11 11 12 12 12 12 11 10 10 11 12 10 10 10 11 9 10 10 9 9 8 8 8 7 7 7 7 7 7 8 7 6 7 7 6 7 6 6 5 7 6 5 7 6 7 7 8 7 6 6 6 6 7 7 9 15 16 16 15 14 14 14 14 13 12 12 11 10 10 9 9 9 9
12 11 11 11 10 11 12 13 13 12 12 13 13 13 12 12 13 12 11 10 10 11 12 11 10 11 11 11 10 10 10 10 9 8 8 9 9 8 8 8 8 8 7 7 8 7 7 8 7 6 6 6 6 5 7 7 5 6 6 7 7 7 7 7 7 8 10 13 13 15 15 16 16 15 14 13 13 12 11 11 10 10 10 10 8
13 12 12 11 12 13 12 13 13 13 12 12 13 13 13 12 12 12 12 11 11 11 11 11 12 11 11 12 11 10 11 12 11 10 10 11 10 9 9 9 9 9 9 8 8 9 9 9 8 7 5 7 5 5 6 8 8 7 6 6 5 7 8 7 7 6 5 5 4 6 9 12 14 15 15 14 13 12 11 11 11 11 11 9 6
13 13 13 13 12 13 14 13 13 13 13 13 12 12 12 12 13 12 12 12 12 11 11 12 12 12 12 12 12 12 13 13 13 12 12 11 11 12 12 11 10 10 11 10 9 10 10 9 8 8 7 6 6 7 5 7 7 8 8 6 7 6 6 8 7 5 4 4 6 10 10 11 13 11 13 15 13 12 12 12 12 12 11 8 8
14 13 13 14 13 12 13 13 13 12 12 12 12 12 12 12 12 13 13 13 13 12 12 12 12 13 13 13 13 13 14 14 14 13 13 12 11 12 12 10 10 11 11 10 9 10 10 10 10 9 8 8 5 4 3 5 6 6 8 9 10 8 8 6 7 7 5 5 5 5 6 7 8 10 11 10 12 13 13 12 13 12 11 9 10
13 14 13 13 14 13 12 13 13 12 12 12 11 12 12 13 13 14 14 14 13 13 13 13 12 13 13 13 14 14 15 17 20 17 16 15 12 13 12 12 11 12 11 10 10 10 9 10 10 7 7 8 8 7 7 8 11 13 8 7 8 8 7 6 7 6 6 6 5 5 5 6 6 6 6 6 7 9 10 13 10 11 10 11 12
14 14 14 13 13 14 13 13 13 12 12 10 14 20 17 14 14 12 12 13 14 13 13 13 13 13 14 13 14 19 20 20 20 21 20 20 20 16 14 13 13 12 11 11 11 10 10 11 11 10 10 11 11 11 11 10 9 5 6 9 10 7 5 7 6 6 7 7 6 6 6 5 6 6 5 6 6 6 6 6 7 8 11 14 14
14 14 14 15 13 13 14 14 14 12 12 11 18 19 20 21 16 13 13 13 14 14 13 13 13 14 14 14 13 15 18 18 19 21 21 22 21 22 20 18 16 15 12 13 12 12 12 12 11 10 12 13 12 11 12 11 8 10 11 9 9 7 8 8 9 3 5 8 7 6 6 4 5 6 5 6 6 6 6 7 10 12 13 14 15
13 13 14 15 14 13 13 14 14 14 13 16 19 20 21 21 19 15 13 12 12 13 13 14 13 12 13 13 12 11 12 15 16 16 20 23 23 23 22 21 20 21 19 16 15 12 13 12 12 13 13 14 13 11 12 11 11 10 10 9 10 10 9 9 8 8 4 8 7 7 8 3 4 5 5 5 5 5 6 8 12 13 14 14 14
12 14 15 14 14 13 13 15 15 15 14 18 19 20 20 20 21 18 12 13 12 13 13 14 13 13 12 12 12 11 11 18 17 15 15 17 21 24 24 24 23 23 21 22 21 19 15 15 15 15 15 13 13 13 13 14 11 12 9 9 9 10 10 10 10 8 3 8 7 7 7 5 6 6 7 6 6 5 6 8 12 13 14 15 13
13 13 13 15 14 14 13 14 15 15 15 16 20 21 21 21 21 19 14 14 13 13 13 13 13 13 13 13 12 12 12 13 13 15 15 15 15 16 17 17 17 20 22 25 25 23 18 16 16 17 16 13 15 14 13 11 12 13 11 12 11 11 11 13 12 7 4 8 10 7 5 6 6 6 7 6 5 5 6 8 12 14 14 13 13
14 14 14 14 14 14 15 13 12 14 13 19 20 22 22 22 22 19 15 13 12 12 12 12 13 13 13 13 14 14 13 13 12 15 15 15 15 15 16 17 18 17 17 19 19 17 16 16 16 18 16 15 16 13 11 12 14 13 13 14 14 13 10 3 2 5 6 9 9 8 9 6 5 7 7 6 5 6 6 8 12 12 12 13 13
12 11 11 12 13 13 14 14 13 13 13 19 21 22 23 21 21 14 13 14 13 13 12 12 12 13 13 14 14 14 15 15 17 19 19 16 15 16 17 17 16 16 17 20 24 22 20 18 17 16 15 15 16 14 13 12 12 10 8 7 7 7 7 8 10 7 8 7 10 10 6 5 6 8 7 6 5 6 4 3 8 13 14 15 14
12 13 13 14 13 13 14 14 15 14 13 16 20 21 21 22 16 12 12 12 13 14 14 12 12 13 13 14 14 14 15 15 17 18 20 18 15 16 17 17 15 15 18 18 21 24 25 25 24 23 20 18 17 18 18 19 15 12 9 9 12 11 11 11 10 9 10 8 8 10 7 6 7 8 7 6 7 6 5 5 5 12 16 15 13
13 14 13 12 11 12 14 15 15 14 14 12 18 20 20 20 18 13 11 12 14 14 13 12 11 12 14 19 17 15 15 15 16 17 18 16 15 16 15 16 15 17 19 17 11 14 23 23 23 22 20 18 18 19 20 20 20 16 13 16 13 11 13 12 12 11 8 8 10 10 7 8 7 6 6 4 4 3 6 6 6 6 9 10 14
11 9 9 10 11 11 12 13 14 14 11 10 13 16 18 18 17 12 12 12 14 14 12 12 12 12 13 13 18 17 16 16 17 17 19 17 16 16 15 14 17 19 22 15 14 15 14 14 15 16 16 17 16 16 17 23 22 20 17 15 11 14 14 13 11 8 7 8 9 12 10 7 8 7 8 5 6 5 5 7 7 6 7 7 7
Wind_Direction
184 182 166 184 176 191 184 177 184 177 160 167 155 162 161 185 158 170 177 172 184 176 163 163 169 176 159 171 162 153 153 140 122 109 59 161 157 162 167 175 179 176 174 171 167 165 166 165 161 161 162 164 170 171 175 174 170 164 161 161 163 159 158 161 164 165 170 165 173 173 170 159 168 165 177 195 166 221 353 2 329 347 339 345 353
188 179 162 177 172 162 147 157 143 142 127 178 172 167 168 174 178 218 186 180 179 201 166 169 169 172 176 160 167 172 172 152 146 132 124 214 158 165 170 178 184 184 181 181 177 173 169 170 168 166 165 168 169 171 173 179 177 171 171 172 174 173 167 165 174 178 177 172 170 178 186 163 219 195 199 217 276 60 297 187 195 276 303 321 328
171 163 148 157 157 151 145 172 136 136 163 91 259 150 175 190 191 214 206 182 189 201 177 183 173 168 169 166 172 165 171 158 170 158 164 166 154 153 169 181 184 187 184 185 185 184 179 176 174 173 173 173 171 169 170 176 178 182 181 184 184 180 180 177 185 186 188 184 190 190 187 195 204 212 216 244 199 205 240 256 261 254 270 285 291
147 147 155 154 149 137 139 149 181 136 155 157 173 152 172 198 199 207 213 200 180 186 179 188 173 182 160 162 173 168 163 171 172 182 171 152 150 152 157 175 187 185 185 187 186 188 187 185 183 182 178 180 178 174 173 173 177 185 186 182 192 188 182 193 201 190 202 194 198 196 200 202 205 210 214 219 230 217 232 259 267 279 289 259 266
141 153 145 136 136 119 132 134 128 141 129 120 134 134 170 209 293 279 276 275 234 173 177 196 174 182 180 156 164 174 171 176 170 166 152 156 151 160 159 168 177 188 185 187 186 190 189 190 188 189 186 185 182 182 181 180 176 182 183 185 186 184 185 196 201 202 206 210 221 217 217 222 223 227 231 234 241 243 250 264 271 264 263 281 275
130 123 144 125 139 139 113 65 54 23 76 101 108 117 166 269 271 340 309 304 316 195 126 159 189 173 194 153 168 175 170 172 168 161 158 153 156 162 165 156 170 184 189 187 187 189 189 191 192 193 191 193 192 191 190 187 184 186 185 183 186 187 193 193 199 201 197 204 212 220 227 232 238 238 242 248 251 254 260 262 266 270 270 273 278
148 133 137 134 134 112 92 123 171 163 112 76 115 127 171 260 263 283 293 292 237 226 134 136 143 166 149 142 161 157 169 164 151 149 158 152 152 161 158 162 164 169 180 173 192 192 193 193 195 194 196 195 198 196 198 197 196 195 195 191 193 201 200 204 205 209 211 213 216 218 225 231 237 242 244 252 251 265 271 274 272 277 279 278 279
139 133 113 129 127 128 121 147 169 130 119 119 120 138 189 248 272 89 273 341 346 288 24 64 42 99 93 94 144 152 143 144 153 154 154 147 157 166 168 165 162 167 173 171 188 192 192 193 193 194 196 195 197 201 201 203 203 201 204 206 204 204 212 208 208 215 220 224 233 237 233 236 243 245 244 244 248 253 266 276 280 276 274 272 272
149 141 150 128 116 127 101 129 115 131 127 111 95 93 41 334 309 323 110 33 41 39 30 19 57 71 66 88 120 144 150 157 150 145 146 149 153 163 165 163 170 174 166 175 180 188 194 196 193 193 194 192 197 202 203 203 204 204 205 208 206 210 209 213 216 223 227 229 225 232 239 242 242 250 259 268 276 278 267 278 283 285 286 284 282
155 152 169 146 143 146 172 146 143 133 126 98 140 132 107 345 304 337 38 92 80 78 44 27 67 82 79 89 91 128 146 142 143 147 147 150 152 165 169 162 159 169 171 175 178 180 197 195 195 195 194 194 194 202 201 198 196 198 199 204 205 207 207 212 213 213 223 234 243 247 247 247 250 265 276 280 285 289 290 279 286 297 294 294 294
161 158 174 150 133 148 146 140 164 139 115 110 104 161 170 272 204 6 357 94 133 144 99 80 87 78 80 86 93 103 140 147 153 154 155 159 163 166 161 163 158 170 175 172 164 169 182 195 191 197 202 195 194 199 200 189 193 189 192 199 198 200 201 205 204 205 206 210 222 230 245 254 266 264 255 255 261 265 275 286 283 270 279 290 295
165 160 164 177 159 171 173 157 169 132 125 125 141 167 175 190 163 145 329 347 15 360 98 88 82 86 95 62 95 110 125 145 153 147 152 166 165 151 154 157 163 176 178 173 161 166 177 180 175 188 200 201 196 195 199 195 197 184 190 202 196 195 203 204 204 201 206 206 202 192 175 197 216 235 260 269 266 259 242 233 241 269 288 317 313
165 161 163 183 190 174 170 157 157 147 143 155 181 158 205 191 188 145 164 258 288 71 60 111 101 73 41 106 117 148 166 133 140 154 165 165 154 150 147 152 169 174 183 166 162 166 170 171 180 180 182 206 201 193 199 198 195 185 195 195 186 191 197 187 177 156 167 174 191 176 182 168 162 189 219 241 267 270 273 257 260 275 286 296 316
163 162 170 176 190 193 147 170 146 154 154 157 173 174 179 215 169 99 195 160 180 129 74 88 32 147 137 115 15 349 249 195 142 156 150 159 160 151 150 159 172 176 161 147 153 164 164 160 169 164 163 178 192 189 190 190 189 184 196 191 185 194 182 175 162 172 167 169 164 167 158 151 165 152 201 66 54 26 17 341 320 346 343 352 355
165 164 168 178 182 185 187 169 144 150 141 158 167 182 188 190 178 167 237 358 85 127 92 112 154 109 147 87 52 43 333 354 347 136 161 169 160 151 161 172 178 153 156 148 151 159 155 156 159 162 167 175 179 172 173 188 192 184 194 182 181 179 171 164 164 163 163 143 143 145 137 138 132 133 92 97 68 46 31 26 32 26 12 35 37
165 170 166 177 179 183 191 168 157 153 159 165 175 179 176 177 192 180 126 63 21 125 156 124 125 100 45 157 185 119 87 301 133 152 167 167 157 161 174 181 170 144 156 158 165 161 160 152 159 167 170 168 169 173 185 178 187 180 179 172 173 178 159 159 158 152 141 133 131 127 125 114 113 113 116 99 86 89 73 79 75 79 74 61 52
168 168 175 181 182 185 182 179 167 165 156 163 168 173 179 197 188 160 144 144 120 133 356 113 117 150 139 87 46 59 199 231 103 306 180 167 154 168 168 138 147 157 165 169 159 163 163 162 164 169 167 167 171 169 163 169 157 161 164 169 173 162 152 151 156 150 145 139 133 134 132 131 131 128 122 114 103 94 92 81 72 65 69 66 56
167 175 179 181 187 184 184 171 171 167 162 169 177 163 181 192 198 155 158 156 147 110 86 85 138 141 145 154 165 173 178 203 88 160 315 351 133 142 143 141 137 147 163 160 166 173 167 164 169 171 164 167 156 150 151 144 127 109 122 167 159 153 152 160 159 151 147 142 141 140 135 131 125 117 107 116 114 108 108 97 100 95 94 84 77
173 176 180 184 183 184 184 173 172 173 169 158 174 181 179 194 203 151 150 140 110 127 152 173 66 48 162 155 130 177 148 113 184 122 106 346 20 141 159 157 147 140 152 162 167 165 172 166 176 171 162 156 153 153 155 164 152 155 166 169 162 166 168 170 164 155 146 143 144 143 139 137 134 126 120 119 119 119 116 119 114 111 110 109 96
169 177 180 183 179 182 183 176 171 180 167 170 179 189 184 189 188 150 150 145 127 137 172 168 143 224 231 69 93 102 97 89 123 153 160 151 257 325 216 171 149 158 156 165 164 160 169 179 171 161 163 163 158 162 170 169 161 164 178 175 174 175 176 178 170 174 160 150 153 157 148 145 142 141 140 131 134 132 131 134 139 137 135 135 137
173 175 184 181 179 180 181 179 179 181 175 174 178 185 186 171 139 138 148 140 142 144 126 167 148 184 166 126 76 53 75 100 108 93 131 123 253 224 251 298 142 172 173 170 173 167 175 176 161 161 165 170 165 168 170 168 166 166 170 178 183 183 181 183 187 194 190 179 173 179 178 168 169 168 165 160 163 159 161 175 164 174 179 177 162
181 178 182 180 179 178 178 183 185 180 177 179 179 184 186 160 157 157 151 137 146 139 148 166 170 216 172 156 126 102 60 37 46 92 81 121 179 257 225 178 190 214 202 174 177 179 174 168 159 155 165 167 164 164 166 169 169 168 175 178 183 185 182 189 194 201 199 196 193 197 198 191 191 192 192 194 191 192 204 197 226 237 248 275 281
182 183 180 181 178 178 179 182 186 181 179 177 183 182 183 166 160 154 148 150 158 166 144 141 174 167 156 149 157 155 164 159 189 192 145 158 88 276 273 190 187 154 208 177 178 178 170 173 165 167 167 168 165 163 168 175 174 179 181 177 180 183 186 190 198 204 203 204 209 208 210 214 215 212 214 218 222 227 236 239 245 262 268 273 282
181 182 183 183 173 179 178 178 185 187 185 183 183 185 172 165 156 161 159 162 163 161 170 152 157 147 151 144 158 154 150 151 189 174 168 193 172 223 256 326 70 198 178 176 188 174 172 177 178 173 175 169 176 172 173 175 182 184 181 181 182 187 192 194 197 206 208 207 213 221 224 224 228 231 232 232 238 244 246 249 254 259 268 271 279
185 186 186 184 174 175 178 178 185 192 188 183 183 182 169 166 163 165 160 163 175 167 175 180 165 164 176 172 166 170 185 203 167 171 188 179 165 192 282 160 189 236 147 152 189 211 182 181 176 179 175 181 179 177 178 178 182 188 181 190 188 192 195 198 200 203 209 211 213 221 225 228 229 237 244 245 247 248 250 255 260 264 267 272 274
183 188 186 181 181 181 180 180 183 187 187 189 184 180 172 171 168 166 174 171 171 169 177 184 174 185 170 159 189 185 203 208 196 179 191 145 164 180 204 352 109 220 334 150 181 150 248 208 186 174 181 187 180 177 179 186 187 194 185 184 197 194 196 203 204 204 209 211 215 219 224 226 230 230 234 239 242 245 247 250 256 260 265 269 270
185 186 181 181 181 180 182 182 183 186 184 186 191 179 174 173 172 171 172 173 171 171 178 177 186 195 192 172 187 203 211 207 193 203 185 177 181 176 148 202 334 3 229 317 312 195 204 235 177 169 182 184 189 179 181 187 192 196 191 186 193 197 201 206 209 210 210 212 215 219 225 227 231 234 235 237 239 242 246 250 252 257 263 266 270
184 177 183 180 179 181 182 186 181 183 185 184 184 186 172 171 175 172 175 175 178 175 185 178 192 199 199 208 185 209 218 221 197 206 190 179 182 178 145 156 167 245 312 209 271 257 227 213 246 178 185 189 193 186 179 177 189 196 190 179 188 200 207 210 213 214 215 216 218 221 225 228 232 236 240 243 244 243 245 249 253 257 261 264 268
178 180 178 182 180 179 183 186 184 182 184 184 185 188 179 170 178 181 181 180 179 187 181 184 192 193 201 211 208 216 226 225 221 206 209 189 180 182 172 172 162 154 184 211 246 216 273 203 202 227 185 189 191 190 178 182 188 182 182 187 190 198 209 213 216 218 220 219 221 224 225 228 231 235 239 243 247 249 251 250 252 258 262 266 268
179 178 178 180 182 182 183 186 188 184 186 185 184 188 182 176 183 186 185 175 182 187 187 184 192 191 199 205 210 221 229 223 237 218 201 190 187 170 172 183 166 177 177 177 247 223 241 254 200 221 214 193 180 181 188 193 187 178 185 192 194 200 211 212 214 218 219 218 221 224 226 228 231 234 237 241 244 248 251 253 256 258 261 262 264
182 179 179 184 183 188 185 187 187 189 187 188 185 183 184 182 183 190 190 178 182 190 194 186 193 189 198 206 206 214 227 226 229 237 229 187 188 186 152 151 165 166 172 156 199 278 193 228 245 220 173 190 178 176 187 193 193 181 186 197 204 206 208 213 215 218 217 216 220 223 226 229 232 233 236 238 240 241 244 246 250 253 256 259 261
184 184 185 187 188 188 189 187 189 190 190 191 187 185 183 190 187 190 193 190 183 192 195 195 191 191 195 203 207 207 211 222 226 228 226 217 182 184 169 160 165 161 155 164 189 242 257 217 240 214 178 173 179 175 185 193 194 186 189 196 208 217 213 214 218 216 213 213 217 222 225 229 231 234 236 238 239 240 236 240 243 246 250 254 259
182 185 189 190 191 190 188 190 190 190 191 191 189 187 188 192 194 195 192 195 196 192 193 198 199 189 196 201 206 208 198 205 218 226 227 215 197 189 183 165 178 177 161 171 196 237 284 240 198 193 192 162 189 191 193 202 194 200 198 198 192 190 197 200 204 209 208 211 218 222 225 227 230 233 236 237 239 236 233 234 238 239 242 247 252
188 185 189 191 192 192 190 190 192 191 192 192 190 188 191 193 196 195 196 195 201 199 191 199 201 198 193 199 207 204 197 203 205 213 217 216 198 195 200 187 192 199 189 171 200 199 235 282 273 254 182 191 192 206 192 198 207 194 203 205 196 187 194 196 196 208 207 212 218 221 222 224 226 230 234 237 237 238 238 239 240 238 239 242 247
193 193 188 188 191 192 195 191 190 191 191 193 192 191 194 194 196 198 197 196 198 201 198 201 200 199 195 200 206 202 193 200 205 208 203 208 201 199 204 196 199 203 200 192 176 208 217 241 221 217 205 198 201 213 209 202 197 188 194 204 200 201 200 194 202 212 209 215 219 220 219 219 222 226 229 232 235 236 237 238 237 236 237 242 246
191 195 194 190 185 191 195 196 193 190 191 194 194 194 195 196 197 200 200 199 201 202 203 201 199 198 202 199 206 200 197 202 205 204 205 202 199 202 203 205 200 205 202 199 199 194 206 219 238 217 215 185 224 217 204 191 188 194 198 203 205 202 205 206 208 216 217 215 221 220 218 217 219 223 225 229 233 235 234 232 231 230 233 238 240
194 192 194 193 190 189 195 197 198 196 193 194 196 196 196 198 199 200 202 203 203 204 205 205 199 198 201 205 204 197 197 203 207 206 203 205 206 197 205 203 203 204 204 200 205 197 199 213 231 228 220 221 208 197 192 190 204 201 202 200 202 207 214 218 213 219 227 224 216 213 210 212 217 221 223 226 230 233 230 229 228 227 231 235 235
196 195 193 193 195 195 197 198 198 200 198 196 197 198 197 198 200 202 203 205 208 207 206 207 205 202 202 206 203 196 197 201 208 208 204 207 205 206 205 206 205 202 206 207 201 204 207 217 208 231 227 215 227 216 194 190 188 201 211 216 212 208 207 218 218 211 202 203 207 212 214 217 220 222 223 226 228 227 227 227 227 226 229 231 216
197 196 196 196 196 198 201 198 199 199 200 200 198 200 200 198 200 202 204 206 208 210 210 208 209 208 207 206 205 201 200 204 206 206 205 206 207 211 209 206 204 202 207 207 202 205 210 214 220 215 220 228 202 218 222 193 190 188 198 218 232 223 208 201 221 236 215 198 212 199 197 198 207 212 222 226 226 223 224 226 228 226 226 216 207
201 199 196 198 199 199 201 202 202 199 200 202 201 200 201 200 199 203 204 205 207 210 212 212 211 211 209 209 208 206 205 205 206 207 201 205 206 212 212 207 204 203 207 206 202 204 209 214 214 216 217 217 236 228 193 179 208 235 209 195 213 217 222 220 211 208 226 195 205 217 223 217 223 222 229 229 226 226 225 228 230 225 216 200 205
202 203 202 198 200 202 201 202 204 203 201 203 202 201 201 202 201 202 204 206 207 209 212 214 214 214 212 212 211 211 210 209 206 206 205 201 200 208 213 209 208 205 207 205 206 203 212 212 221 217 215 220 219 201 209 200 204 215 204 187 213 211 208 218 239 221 201 197 213 211 216 196 209 216 207 220 230 225 230 224 227 221 202 200 205
201 202 204 203 201 202 202 203 204 205 206 205 205 201 199 201 203 203 203 207 208 209 210 213 216 215 216 215 216 212 210 209 207 208 208 205 206 207 208 206 208 206 207 206 207 209 208 212 217 208 215 222 215 210 213 217 214 202 181 197 212 208 188 218 237 224 202 192 195 215 229 201 197 221 203 214 225 206 215 200 214 205 201 203 207
199 199 201 205 203 200 202 203 204 207 208 210 204 200 201 202 202 204 204 207 210 212 212 212 215 217 218 218 221 215 212 211 211 209 209 209 209 213 214 210 207 203 204 207 211 208 209 215 215 211 218 222 219 211 215 213 208 202 206 196 206 184 194 194 221 255 204 182 195 201 231 223 179 196 207 209 207 201 206 209 206 203 201 204 207
199 197 201 204 204 200 201 204 206 208 211 209 203 203 203 203 202 205 208 209 210 213 215 215 217 218 219 220 220 220 214 213 214 214 212 211 211 213 214 214 214 213 208 201 205 207 211 215 215 216 215 220 217 210 214 207 212 210 209 199 200 197 202 207 214 215 217 173 181 191 229 224 184 199 216 221 207 199 209 208 204 200 205 205 205
196 198 202 200 204 203 200 202 208 209 213 207 201 202 203 203 205 207 213 213 213 215 216 217 218 217 218 221 222 220 222 212 213 214 212 216 216 215 214 216 217 214 215 217 212 207 202 210 215 219 216 215 214 218 207 207 203 210 203 206 205 204 202 207 216 209 204 173 158 188 220 222 176 201 213 226 213 217 230 210 202 200 203 204 195
198 201 200 202 203 204 203 201 207 211 212 207 200 201 203 203 205 206 218 216 218 220 219 220 221 220 218 220 222 223 222 217 213 214 214 213 215 219 221 220 221 220 218 219 220 218 211 211 212 219 220 207 217 216 206 199 197 208 200 208 203 205 201 209 212 194 174 166 175 174 214 229 190 182 212 231 212 227 229 219 207 208 200 188 188
199 200 199 201 204 205 207 205 205 211 214 206 199 201 202 203 205 203 218 221 224 224 224 223 223 224 223 222 223 225 223 223 216 211 213 213 213 216 218 222 222 220 217 222 223 219 218 220 219 222 221 212 219 214 202 201 205 207 201 203 199 203 202 184 150 188 171 183 170 160 206 208 180 178 210 215 216 223 221 223 213 201 182 185 193
203 202 205 206 205 206 208 209 209 212 215 205 200 200 201 203 201 204 214 222 226 228 227 225 225 226 226 225 226 228 227 225 222 208 210 211 212 217 219 222 223 224 225 222 218 216 217 219 222 223 221 216 212 211 203 201 207 207 202 201 191 183 167 183 204 191 191 196 181 176 192 198 187 189 200 205 197 225 225 191 195 183 185 192 196
201 202 205 207 207 206 208 211 215 218 217 206 200 201 201 199 195 208 211 221 228 231 231 226 228 228 228 226 226 231 230 232 226 212 212 207 217 219 221 222 222 224 232 230 223 221 223 224 225 227 224 218 211 210 204 201 201 194 184 187 200 183 186 196 203 189 206 183 200 187 174 193 198 188 190 181 178 205 204 192 179 194 194 193 183
207 206 205 208 209 210 211 214 214 219 224 209 196 199 198 195 193 202 209 216 227 232 235 233 232 234 233 228 227 229 233 236 228 217 213 205 221 225 224 225 225 229 235 230 223 223 228 229 230 229 227 219 210 206 205 202 200 189 192 205 197 181 197 196 196 200 200 193 197 178 167 205 183 189 185 177 154 185 180 191 184 181 188 184 189
214 211 206 209 212 215 217 219 218 220 226 217 188 195 197 192 194 206 206 214 226 230 232 237 235 238 241 236 231 231 234 237 230 218 211 203 221 227 226 225 229 233 235 220 221 226 220 221 233 235 238 229 216 208 209 204 201 199 204 207 187 190 196 197 192 179 201 222 201 173 184 199 176 203 175 152 184 217 187 173 168 167 172 178 192